| time (UTC) | temp F | wind direction | speed knots | gust knots | rain 1hr in | rain 24hr in | rain mn in | humidity % | barometer mb |
| 20260503053005 | 55 | 243 | 0.0 | 1.7 | 0.00 | 0.00 | 0.00 | 81 | 1019.3 |
| 20260503052005 | 53 | 0 | 0.0 | 0.0 | 0.00 | 0.00 | 0.00 | 83 | 1019.3 |
| 20260503051505 | 52 | 0 | 0.0 | 0.0 | 0.00 | 0.00 | 0.00 | 83 | 1019.3 |
| 20260503051005 | 52 | 0 | 0.0 | 0.0 | 0.00 | 0.00 | 0.00 | 84 | 1019.3 |
| 20260503050505 | 51 | 0 | 0.0 | 0.0 | 0.00 | 0.00 | 0.00 | 84 | 1019.2 |
| 20260503050005 | 51 | 0 | 0.0 | 0.0 | 0.00 | 0.00 | 0.00 | 85 | 1019.1 |
| 20260503045505 | 51 | 0 | 0.0 | 0.0 | 0.00 | 0.00 | 0.00 | 86 | 1019.2 |
| 20260503045005 | 51 | 0 | 0.0 | 0.0 | 0.00 | 0.00 | 0.00 | 85 | 1019.3 |
| 20260503044505 | 50 | 249 | 0.0 | 1.7 | 0.00 | 0.00 | 0.00 | 85 | 1019.4 |
| 20260503044005 | 50 | 249 | 0.9 | 1.7 | 0.00 | 0.00 | 0.00 | 86 | 1019.3 |
| 20260503043505 | 50 | 249 | 1.7 | 3.5 | 0.00 | 0.00 | 0.00 | 86 | 1019.3 |
| 20260503042506 | 49 | 0 | 0.0 | 0.0 | 0.00 | 0.00 | 0.00 | 85 | 1019.3 |
| 20260503042005 | 49 | 0 | 0.0 | 0.0 | 0.00 | 0.00 | 0.00 | 85 | 1019.3 |
| 20260503041505 | 49 | 0 | 0.0 | 0.0 | 0.00 | 0.00 | 0.00 | 85 | 1019.3 |
| 20260503041005 | 48 | 0 | 0.0 | 0.0 | 0.00 | 0.00 | 0.00 | 84 | 1019.2 |
| 20260503040005 | 49 | 0 | 0.0 | 0.0 | 0.00 | 0.00 | 0.00 | 84 | 1019.1 |
| 20260503035505 | 49 | 0 | 0.0 | 0.0 | 0.00 | 0.00 | 0.00 | 83 | 1019.0 |
| 20260503035005 | 49 | 0 | 0.0 | 0.0 | 0.00 | 0.00 | 0.00 | 83 | 1018.8 |
| 20260503034005 | 49 | 0 | 0.0 | 0.0 | 0.00 | 0.00 | 0.00 | 83 | 1018.9 |
| 20260503033005 | 50 | 0 | 0.0 | 0.0 | 0.00 | 0.00 | 0.00 | 81 | 1018.8 |
| 20260503032505 | 50 | 0 | 0.0 | 0.0 | 0.00 | 0.00 | 0.00 | 81 | 1018.8 |
| 20260503032005 | 50 | 0 | 0.0 | 0.0 | 0.00 | 0.00 | 0.00 | 81 | 1018.9 |
| 20260503031505 | 51 | 0 | 0.0 | 0.0 | 0.00 | 0.00 | 0.00 | 81 | 1018.9 |
| 20260503031005 | 51 | 251 | 0.0 | 1.7 | 0.00 | 0.00 | 0.00 | 81 | 1018.9 |
| 20260503030506 | 51 | 251 | 0.9 | 1.7 | 0.00 | 0.00 | 0.00 | 80 | 1018.9 |
| 20260503030005 | 51 | 252 | 1.7 | 3.5 | 0.00 | 0.00 | 0.00 | 80 | 1019.0 |
| 20260503025505 | 51 | 252 | 0.9 | 3.5 | 0.00 | 0.00 | 0.00 | 79 | 1019.0 |
| 20260503025005 | 51 | 0 | 0.0 | 0.0 | 0.00 | 0.00 | 0.00 | 79 | 1018.9 |
| 20260503024505 | 51 | 0 | 0.0 | 0.0 | 0.00 | 0.00 | 0.00 | 78 | 1018.9 |
| 20260503024005 | 51 | 0 | 0.0 | 0.0 | 0.00 | 0.00 | 0.00 | 78 | 1019.0 |
| 20260503023505 | 51 | 0 | 0.0 | 0.0 | 0.00 | 0.00 | 0.00 | 78 | 1019.0 |
| 20260503022505 | 51 | 0 | 0.0 | 0.0 | 0.00 | 0.00 | 0.00 | 79 | 1019.1 |
| 20260503022005 | 51 | 0 | 0.0 | 0.0 | 0.00 | 0.00 | 0.00 | 79 | 1019.2 |
| 20260503021505 | 52 | 0 | 0.0 | 0.0 | 0.00 | 0.00 | 0.00 | 78 | 1019.2 |
| 20260503021005 | 52 | 0 | 0.0 | 0.0 | 0.00 | 0.00 | 0.00 | 78 | 1019.1 |
| 20260503020005 | 53 | 0 | 0.0 | 0.0 | 0.00 | 0.00 | 0.00 | 77 | 1019.3 |
| 20260503015505 | 53 | 0 | 0.0 | 0.0 | 0.00 | 0.00 | 0.00 | 77 | 1019.3 |
| 20260503015005 | 53 | 0 | 0.0 | 0.0 | 0.00 | 0.00 | 0.00 | 75 | 1019.2 |
| 20260503014505 | 53 | 0 | 0.0 | 0.0 | 0.00 | 0.00 | 0.00 | 75 | 1019.2 |
| 20260503014005 | 53 | 0 | 0.0 | 0.0 | 0.00 | 0.00 | 0.00 | 75 | 1019.2 |
| 20260503013505 | 53 | 0 | 0.0 | 0.0 | 0.00 | 0.00 | 0.00 | 74 | 1019.2 |
| 20260503012005 | 53 | 0 | 0.0 | 0.0 | 0.00 | 0.00 | 0.00 | 74 | 1019.4 |
| 20260503011506 | 53 | 0 | 0.0 | 0.0 | 0.00 | 0.00 | 0.00 | 73 | 1019.5 |
| 20260503011005 | 54 | 0 | 0.0 | 0.0 | 0.00 | 0.00 | 0.00 | 73 | 1019.5 |
| 20260503010506 | 54 | 0 | 0.0 | 0.0 | 0.00 | 0.00 | 0.00 | 72 | 1019.6 |
| 20260503010005 | 54 | 0 | 0.0 | 0.0 | 0.00 | 0.00 | 0.00 | 73 | 1019.6 |
| 20260503005505 | 54 | 0 | 0.0 | 0.0 | 0.00 | 0.00 | 0.00 | 72 | 1019.6 |
| 20260503005005 | 54 | 0 | 0.0 | 0.0 | 0.00 | 0.00 | 0.00 | 71 | 1019.5 |
| 20260503004505 | 54 | 0 | 0.0 | 0.0 | 0.00 | 0.00 | 0.00 | 71 | 1019.6 |
| 20260503004005 | 54 | 0 | 0.0 | 0.0 | 0.00 | 0.00 | 0.00 | 71 | 1019.6 |
| 20260503003005 | 55 | 343 | 1.7 | 2.6 | 0.00 | 0.00 | 0.00 | 70 | 1019.7 |
| 20260503002505 | 55 | 337 | 1.7 | 2.6 | 0.00 | 0.00 | 0.00 | 70 | 1019.8 |
| 20260503002005 | 55 | 330 | 1.7 | 2.6 | 0.00 | 0.00 | 0.00 | 69 | 1019.9 |
| 20260503001005 | 56 | 340 | 1.7 | 3.5 | 0.00 | 0.00 | 0.00 | 68 | 1020.0 |
| 20260503000006 | 56 | 303 | 1.7 | 3.5 | 0.00 | 0.00 | 0.00 | 68 | 1020.1 |
| 20260502235505 | 56 | 294 | 2.6 | 4.3 | 0.00 | 0.00 | 0.00 | 67 | 1020.2 |
| 20260502235005 | 56 | 292 | 2.6 | 4.3 | 0.00 | 0.00 | 0.00 | 68 | 1020.2 |
| 20260502234505 | 56 | 291 | 1.7 | 3.5 | 0.00 | 0.00 | 0.00 | 69 | 1020.2 |
| 20260502234005 | 56 | 305 | 2.6 | 3.5 | 0.00 | 0.00 | 0.00 | 69 | 1020.2 |
| 20260502233005 | 56 | 317 | 1.7 | 4.3 | 0.00 | 0.00 | 0.00 | 71 | 1020.2 |
| 20260502232505 | 56 | 306 | 0.0 | 3.5 | 0.00 | 0.00 | 0.00 | 71 | 1020.1 |
| 20260502232005 | 56 | 0 | 0.0 | 0.0 | 0.00 | 0.00 | 0.00 | 71 | 1020.1 |
| 20260502231505 | 56 | 0 | 0.0 | 0.0 | 0.00 | 0.00 | 0.00 | 69 | 1020.1 |
| 20260502231005 | 56 | 0 | 0.0 | 0.0 | 0.00 | 0.00 | 0.00 | 69 | 1020.1 |
| 20260502230505 | 56 | 0 | 0.0 | 0.0 | 0.00 | 0.00 | 0.00 | 69 | 1020.2 |
| 20260502230005 | 56 | 0 | 0.0 | 0.0 | 0.00 | 0.00 | 0.00 | 68 | 1020.2 |
| 20260502225505 | 56 | 0 | 0.0 | 0.0 | 0.00 | 0.00 | 0.00 | 69 | 1020.2 |
| 20260502225005 | 57 | 0 | 0.0 | 0.0 | 0.00 | 0.00 | 0.00 | 69 | 1020.2 |
| 20260502224505 | 57 | 0 | 0.0 | 0.0 | 0.00 | 0.00 | 0.00 | 68 | 1020.3 |
| 20260502224006 | 57 | 0 | 0.0 | 0.0 | 0.00 | 0.00 | 0.00 | 68 | 1020.3 |
| 20260502223505 | 57 | 184 | 0.0 | 1.7 | 0.00 | 0.00 | 0.00 | 68 | 1020.3 |
| 20260502223005 | 58 | 183 | 0.0 | 2.6 | 0.00 | 0.00 | 0.00 | 66 | 1020.4 |
| 20260502222505 | 58 | 183 | 0.0 | 2.6 | 0.00 | 0.00 | 0.00 | 66 | 1020.5 |
| 20260502222005 | 58 | 186 | 0.0 | 1.7 | 0.00 | 0.00 | 0.00 | 66 | 1020.5 |
| 20260502221006 | 59 | 186 | 0.0 | 1.7 | 0.00 | 0.00 | 0.00 | 63 | 1020.5 |
| 20260502220009 | 59 | 184 | 0.0 | 1.7 | 0.00 | 0.00 | 0.00 | 63 | 1020.4 |
| 20260502214506 | 59 | 185 | 0.9 | 2.6 | 0.00 | 0.00 | 0.00 | 63 | 1020.4 |
| 20260502213506 | 59 | 179 | 1.7 | 2.6 | 0.00 | 0.00 | 0.00 | 64 | 1020.4 |
| 20260502213005 | 59 | 177 | 1.7 | 2.6 | 0.00 | 0.00 | 0.00 | 64 | 1020.3 |
| 20260502212506 | 58 | 176 | 1.7 | 3.5 | 0.00 | 0.00 | 0.00 | 64 | 1020.3 |
| 20260502212005 | 59 | 175 | 1.7 | 3.5 | 0.00 | 0.00 | 0.00 | 64 | 1020.4 |
| 20260502211505 | 59 | 174 | 0.9 | 2.6 | 0.00 | 0.00 | 0.00 | 64 | 1020.4 |
| 20260502211005 | 59 | 173 | 0.0 | 1.7 | 0.00 | 0.00 | 0.00 | 64 | 1020.4 |
| 20260502210005 | 60 | 152 | 0.9 | 1.7 | 0.00 | 0.00 | 0.00 | 63 | 1020.4 |
| 20260502205506 | 60 | 163 | 0.9 | 2.6 | 0.00 | 0.00 | 0.00 | 63 | 1020.5 |
| 20260502205006 | 60 | 177 | 1.7 | 2.6 | 0.00 | 0.00 | 0.00 | 61 | 1020.5 |
| 20260502204505 | 60 | 184 | 1.7 | 2.6 | 0.00 | 0.00 | 0.00 | 60 | 1020.5 |
| 20260502204005 | 61 | 184 | 0.9 | 2.6 | 0.00 | 0.00 | 0.00 | 60 | 1020.5 |
| 20260502203505 | 61 | 159 | 0.9 | 2.6 | 0.00 | 0.00 | 0.00 | 60 | 1020.7 |
| 20260502203005 | 62 | 157 | 0.9 | 2.6 | 0.00 | 0.00 | 0.00 | 60 | 1020.6 |
| 20260502202505 | 62 | 171 | 0.0 | 1.7 | 0.00 | 0.00 | 0.00 | 59 | 1020.6 |
| 20260502202006 | 63 | 179 | 0.9 | 2.6 | 0.00 | 0.00 | 0.00 | 56 | 1020.7 |
| 20260502201506 | 63 | 184 | 0.9 | 2.6 | 0.00 | 0.00 | 0.00 | 54 | 1020.7 |
| 20260502201006 | 64 | 184 | 0.9 | 2.6 | 0.00 | 0.00 | 0.00 | 53 | 1020.7 |
| 20260502200505 | 64 | 188 | 1.7 | 2.6 | 0.00 | 0.00 | 0.00 | 53 | 1020.7 |
| 20260502200005 | 64 | 189 | 1.7 | 3.5 | 0.00 | 0.00 | 0.00 | 53 | 1020.7 |
| 20260502195005 | 65 | 191 | 1.7 | 2.6 | 0.00 | 0.00 | 0.00 | 52 | 1020.7 |
| 20260502194506 | 65 | 189 | 1.7 | 3.5 | 0.00 | 0.00 | 0.00 | 52 | 1020.7 |
| 20260502194005 | 65 | 189 | 1.7 | 3.5 | 0.00 | 0.00 | 0.00 | 52 | 1020.7 |
| 20260502193505 | 65 | 186 | 1.7 | 3.5 | 0.00 | 0.00 | 0.00 | 52 | 1020.6 |
| 20260502193005 | 65 | 183 | 1.7 | 2.6 | 0.00 | 0.00 | 0.00 | 51 | 1020.6 |
| 20260502192505 | 66 | 182 | 0.9 | 2.6 | 0.00 | 0.00 | 0.00 | 50 | 1020.5 |
| 20260502192005 | 66 | 178 | 0.9 | 2.6 | 0.00 | 0.00 | 0.00 | 50 | 1020.5 |
| 20260502191505 | 67 | 183 | 1.7 | 3.5 | 0.00 | 0.00 | 0.00 | 50 | 1020.5 |
| 20260502191006 | 67 | 188 | 1.7 | 3.5 | 0.00 | 0.00 | 0.00 | 49 | 1020.4 |
| 20260502190505 | 67 | 188 | 1.7 | 3.5 | 0.00 | 0.00 | 0.00 | 48 | 1020.4 |
| 20260502190005 | 67 | 182 | 1.7 | 3.5 | 0.00 | 0.00 | 0.00 | 47 | 1020.4 |
| 20260502185505 | 68 | 181 | 1.7 | 2.6 | 0.00 | 0.00 | 0.00 | 46 | 1020.3 |
| 20260502185005 | 68 | 181 | 1.7 | 2.6 | 0.00 | 0.00 | 0.00 | 46 | 1020.4 |
| 20260502184506 | 69 | 181 | 0.9 | 2.6 | 0.00 | 0.00 | 0.00 | 46 | 1020.3 |
| 20260502184006 | 69 | 178 | 0.9 | 2.6 | 0.00 | 0.00 | 0.00 | 46 | 1020.3 |
| 20260502183505 | 69 | 181 | 0.9 | 2.6 | 0.00 | 0.00 | 0.00 | 45 | 1020.4 |
| 20260502183005 | 70 | 189 | 0.9 | 2.6 | 0.00 | 0.00 | 0.00 | 44 | 1020.3 |
| 20260502182505 | 70 | 190 | 0.9 | 2.6 | 0.00 | 0.00 | 0.00 | 43 | 1020.3 |
| 20260502182005 | 71 | 187 | 0.9 | 2.6 | 0.00 | 0.00 | 0.00 | 42 | 1020.3 |
| 20260502181005 | 72 | 188 | 0.9 | 2.6 | 0.00 | 0.00 | 0.00 | 40 | 1020.3 |
| 20260502170505 | 76 | 215 | 1.7 | 3.5 | 0.00 | 0.00 | 0.00 | 34 | 1020.3 |
| 20260502164005 | 76 | 227 | 1.7 | 4.3 | 0.00 | 0.00 | 0.00 | 34 | 1020.6 |
| 20260502163505 | 76 | 191 | 1.7 | 6.1 | 0.00 | 0.00 | 0.00 | 35 | 1020.5 |
| 20260502163005 | 76 | 177 | 1.7 | 6.1 | 0.00 | 0.00 | 0.00 | 34 | 1020.7 |
| 20260502162506 | 76 | 196 | 1.7 | 6.1 | 0.00 | 0.00 | 0.00 | 32 | 1020.6 |
| 20260502162006 | 77 | 207 | 1.7 | 6.1 | 0.00 | 0.00 | 0.00 | 33 | 1020.7 |
| 20260502161505 | 78 | 243 | 1.7 | 5.2 | 0.00 | 0.00 | 0.00 | 33 | 1020.7 |
| 20260502161005 | 78 | 235 | 1.7 | 5.2 | 0.00 | 0.00 | 0.00 | 31 | 1020.7 |
| 20260502160505 | 78 | 228 | 1.7 | 4.3 | 0.00 | 0.00 | 0.00 | 33 | 1020.7 |
| 20260502152005 | 77 | 206 | 1.7 | 6.1 | 0.00 | 0.00 | 0.00 | 33 | 1021.3 |
| 20260502150505 | 78 | 234 | 2.6 | 5.2 | 0.00 | 0.00 | 0.00 | 32 | 1021.4 |
| 20260502130505 | 77 | 205 | 3.5 | 7.0 | 0.00 | 0.00 | 0.00 | 33 | 1023.0 |
| 20260502123505 | 76 | 206 | 2.6 | 7.0 | 0.00 | 0.00 | 0.00 | 31 | 1023.4 |
| 20260502123005 | 76 | 224 | 2.6 | 7.8 | 0.00 | 0.00 | 0.00 | 33 | 1023.5 |
| 20260502122505 | 76 | 213 | 3.5 | 10.4 | 0.00 | 0.00 | 0.00 | 32 | 1023.4 |
| 20260502121005 | 76 | 239 | 3.5 | 7.8 | 0.00 | 0.00 | 0.00 | 33 | 1023.6 |
| 20260502120505 | 76 | 231 | 2.6 | 7.8 | 0.00 | 0.00 | 0.00 | 33 | 1023.7 |
| 20260502115505 | 76 | 209 | 4.3 | 10.4 | 0.00 | 0.00 | 0.00 | 33 | 1023.8 |
| 20260502115005 | 76 | 200 | 5.2 | 10.4 | 0.00 | 0.00 | 0.00 | 36 | 1023.9 |
| 20260502114505 | 76 | 206 | 3.5 | 10.4 | 0.00 | 0.00 | 0.00 | 34 | 1024.0 |
| 20260502114005 | 76 | 233 | 2.6 | 7.0 | 0.00 | 0.00 | 0.00 | 32 | 1024.0 |
| 20260502113505 | 76 | 216 | 3.5 | 7.0 | 0.00 | 0.00 | 0.00 | 33 | 1024.1 |
| 20260502113005 | 76 | 204 | 4.3 | 9.6 | 0.00 | 0.00 | 0.00 | 34 | 1024.2 |
| 20260502112006 | 76 | 220 | 2.6 | 8.7 | 0.00 | 0.00 | 0.00 | 33 | 1024.2 |
| 20260502111506 | 76 | 253 | 2.6 | 8.7 | 0.00 | 0.00 | 0.00 | 36 | 1024.4 |
| 20260502111005 | 75 | 228 | 3.5 | 8.7 | 0.00 | 0.00 | 0.00 | 34 | 1024.4 |
| 20260502110505 | 76 | 210 | 3.5 | 8.7 | 0.00 | 0.00 | 0.00 | 34 | 1024.5 |
| 20260502110005 | 75 | 215 | 2.6 | 7.8 | 0.00 | 0.00 | 0.00 | 37 | 1024.4 |
| 20260502105506 | 75 | 232 | 3.5 | 7.8 | 0.00 | 0.00 | 0.00 | 34 | 1024.5 |
| 20260502105006 | 74 | 265 | 3.5 | 7.8 | 0.00 | 0.00 | 0.00 | 37 | 1024.6 |
| 20260502103505 | 74 | 257 | 3.5 | 7.0 | 0.00 | 0.00 | 0.00 | 36 | 1024.8 |
| 20260502103005 | 74 | 241 | 2.6 | 7.0 | 0.00 | 0.00 | 0.00 | 33 | 1024.9 |
| 20260502102005 | 74 | 258 | 4.3 | 7.8 | 0.00 | 0.00 | 0.00 | 33 | 1025.0 |
| 20260502101505 | 74 | 259 | 3.5 | 7.8 | 0.00 | 0.00 | 0.00 | 34 | 1025.0 |
| 20260502101005 | 75 | 244 | 1.7 | 7.8 | 0.00 | 0.00 | 0.00 | 35 | 1025.2 |
| 20260502100505 | 75 | 235 | 1.7 | 4.3 | 0.00 | 0.00 | 0.00 | 33 | 1025.2 |
| 20260502091505 | 73 | 238 | 2.6 | 5.2 | 0.00 | 0.00 | 0.00 | 35 | 1025.7 |
| 20260502091005 | 72 | 232 | 2.6 | 5.2 | 0.00 | 0.00 | 0.00 | 37 | 1025.7 |
| 20260502090505 | 71 | 245 | 2.6 | 5.2 | 0.00 | 0.00 | 0.00 | 39 | 1025.7 |
| 20260502071505 | 63 | 312 | 1.7 | 3.5 | 0.00 | 0.00 | 0.00 | 61 | 1026.2 |
| 20260502071006 | 63 | 318 | 1.7 | 3.5 | 0.00 | 0.00 | 0.00 | 62 | 1026.2 |
| 20260502070505 | 62 | 298 | 1.7 | 3.5 | 0.00 | 0.00 | 0.00 | 62 | 1026.4 |
| 20260502070005 | 62 | 286 | 1.7 | 3.5 | 0.00 | 0.00 | 0.00 | 63 | 1026.3 |
| 20260502065505 | 61 | 298 | 1.7 | 3.5 | 0.00 | 0.00 | 0.00 | 65 | 1026.3 |
| 20260502065005 | 60 | 311 | 1.7 | 3.5 | 0.00 | 0.00 | 0.00 | 65 | 1026.3 |
| 20260502064505 | 60 | 310 | 0.9 | 3.5 | 0.00 | 0.00 | 0.00 | 66 | 1026.3 |
| 20260502064005 | 60 | 300 | 0.9 | 2.6 | 0.00 | 0.00 | 0.00 | 68 | 1026.4 |
| 20260502063505 | 59 | 287 | 0.9 | 2.6 | 0.00 | 0.00 | 0.00 | 68 | 1026.5 |
| 20260502063005 | 59 | 265 | 0.9 | 3.5 | 0.00 | 0.00 | 0.00 | 69 | 1026.5 |
| 20260502062006 | 58 | 286 | 1.7 | 3.5 | 0.00 | 0.00 | 0.00 | 69 | 1026.4 |
| 20260502061506 | 57 | 272 | 1.7 | 4.3 | 0.00 | 0.00 | 0.00 | 69 | 1026.5 |
| 20260502061005 | 57 | 266 | 1.7 | 4.3 | 0.00 | 0.00 | 0.00 | 69 | 1026.4 |
| 20260502060505 | 56 | 264 | 1.7 | 3.5 | 0.00 | 0.00 | 0.00 | 71 | 1026.3 |
| 20260502055505 | 55 | 259 | 1.7 | 4.3 | 0.00 | 0.00 | 0.00 | 72 | 1026.3 |
| 20260502055005 | 55 | 265 | 1.7 | 4.3 | 0.00 | 0.00 | 0.00 | 72 | 1026.3 |
| 20260502054505 | 54 | 270 | 1.7 | 3.5 | 0.00 | 0.00 | 0.00 | 73 | 1026.3 |
| 20260502054005 | 54 | 272 | 1.7 | 3.5 | 0.00 | 0.00 | 0.00 | 73 | 1026.4 |